SCP
0 0 0 0 0 0 0 0 0 0 0 0 0 0 0 0 0 0 0 0 0 0 0 0 0 0 0 0 0 0 0 0 0 0 0 0 0 0 0 0 0 0 0 0
0 0 0 0 0 0 0 0 0 0 0 0 0 0 0 0 0 0 0 0 0 0 0 0 0 0 0 0 0 0 0 0 0 0 0 0 0 0 0 0 0 0 0 0
0 0 0 0 0 0 0 0 0 0 0 0 0 0 0 0 0 0 0 0 0 0 0 0 0 0 0 0 0 0 0 0 0 0 0 0 0 0 0 0 0 0 0 0
0 0 0 0 0 0 0 0 0 0 0 0 0 0 0 0 0 0 0 0 0 0 0 0 0 0 0 0 0 0 0 0 0 0 0 0 0 0 0 0 0 0 0 0
0 0 0 0 0 0 0 0 0 0 0 0 0 0 0 0 0 0 0 0 0 0 0 0 0 0 0 0 0 0 0 0 0 0 0 0 0 0 0 0 0 0 0 0
0 0 0 0 0 0 0 0 0 0 0 0 0 0 0 0 0 0 0 0 0 0 0 0 0 0 0 0 0 0 0 0 0 0 0 0 0 0 0 0 0 0 0 0
0 0 0 0 0 0 0 0 0 0 0 0 0 0 0 0 0 0 0 0 0 0 0 0 0 0 0 0 0 0 0 0 0 0 0 0 0 0 0 0 0 0 0 0
0 0 0 0 0 0 0 0 0 0 0 0 0 0 0 0 0 0 0 0 0 0 0 0 0 0 0 0 0 0 0 0 0 0 0 0 0 0 0 0 0 0 0 0
0 0 0 0 0 0 0 0 0 0 0 0 0 0 0 0 0 0 0 0 0 0 0 0 0 0 0 0 0 0 0 0 0 0 0 0 0 0 0 0 0 0 0 0
0 0 0 0 0 0 0 0 0 0 0 0 0 0 0 0 0 0 0 0 0 0 0 0 0 0 0 0 0 0 0 0 0 0 0 0 0 0 0 0 0 0 0 0
0 0 0 0 0 0 0 0 0 0 0 0 0 0 0 0 0 0 0 0 0 0 0 0 0 0 0 0 0 0 0 0 0 0 0 0 0 0 0 0 0 0 0 0
0 0 0 0 0 0 0 0 0 0 0 0 0 0 0 0 0 0 0 0 0 0 0 0 0 0 0 0 0 0 0 0 0 0 0 0 0 0 0 0 0 0 0 0
0 0 0 0 0 0 0 0 0 0 0 0 0 0 0 0 0 0 0 0 0 0 0 0 0 0 0 0 0 0 0 0 0 0 0 0 0 0 0 0 0 0 0 0
0 0 0 0 0 0 0 0 0 0 0 0 0 0 0 0 0 0 0 0 0 0 0 0 0 0 0 0 0 0 0 0 0 0 0 0 0 0 0 0 0 0 0 0
0 0 0 0 0 0 0 0 0 0 0 0 0 0 0 0 0 0 0 0 0 0 0 0 0 0 0 0 0 0 0 0 0 0 0 0 0 0 0 0 0 0 0 0
0 0 0 0 0 0 0 0 0 0 0 0 0 0 0 0 0 0 0 0 0 0 0 0 0 0 0 0 0 0 0 0 0 0 0 0 0 0 0 0 0 0 0 0
0 0 0 0 0 0 0 0 0 0 0 0 0 0 0 0 0 0 0 0 0 0 0 0 0 0 0 0 0 0 0 0 0 0 0 0 0 0 0 0 0 0 0 0
0 0 0 0 0 0 0 0 0 0 0 0 0 0 0 0 0 0 0 0 0 0 0 0 0 0 0 0 0 0 0 0 0 0 0 0 0 0 0 0 0 0 0 0
0 0 0 0 0 0 0 0 0 0 0 0 0 0 0 0 0 0 0 0 0 0 0 0 0 0 0 0 0 0 0 0 0 0 0 0 0 0 0 0 0 0 0 0
0 0 0 0 0 0 0 0 0 0 0 0 0 0 0 0 0 0 0 0 0 0 0 0 0 0 0 0 0 0 0 0 0 0 0 0 0 0 0 0 0 0 0 0
0 0 0 0 0 0 0 0 0 0 0 0 0 0 0 0 0 0 0 0 0 0 0 0 0 0 0 0 0 0 0 0 0 0 0 0 0 0 0 0 0 0 0 0
0 0 0 0 0 0 0 0 0 0 0 0 0 0 0 0 0 0 0 0 0 0 0 0 0 0 0 0 0 0 0 0 0 0 0 0 0 0 0 0 0 0 0 0
0 0 0 0 0 0 0 0 0 0 0 0 0 0 0 0 0 0 0 0 0 0 0 0 0 0 0 0 0 0 0 0 0 0 0 0 0 0 0 0 0 0 0 0
0 0 0 0 0 0 0 0 0 0 0 0 0 0 0 0 0 0 0 0 0 0 0 0 0 0 0 0 0 0 0 0 0 0 0 0 0 0 0 0 0 0 0 0
0 0 0 0 0 0 0 0 0 0 0 0 0 0 0 0 0 0 0 0 0 0 0 0 0 0 0 0 0 0 0 0 0 0 0 0 0 0 0 0 0 0 0 0
0 0 0 0 0 0 0 0 0 0 0 0 0 0 0 0 0 0 0 0 0 0 0 0 0 0 0 0 0 0 0 0 0 0 0 0 0 0 0 0 0 0 0 0
0 0 0 0 0 0 0 0 0 0 0 0 0 0 0 0 0 0 0 0 0 0 0 0 0 0 0 0 0 0 0 0 0 0 0 0 0 0 0 0 0 0 0 0
Wind_Speed
9 7 7 10 10 10 13 13 12 10 9 8 6 4 3 2 2 2 2 2 3 3 3 3 4 4 5 4 4 5 5 5 4 3 3 3 3 3 2 2 2 2 2 2
9 7 8 11 11 12 13 12 12 11 10 7 6 4 4 3 3 3 3 3 3 3 3 4 4 4 5 5 4 5 6 5 4 4 3 3 3 3 3 3 3 2 2 2
9 6 9 11 8 9 9 8 10 11 7 4 5 5 4 3 3 4 3 3 3 3 4 4 4 4 4 5 5 5 5 5 5 4 4 4 3 3 3 3 3 3 2 2
7 7 10 2 1 3 5 6 6 6 5 5 6 5 5 4 3 3 3 3 3 3 3 4 4 4 4 4 5 5 5 5 5 5 4 4 4 3 3 3 3 3 3 2
6 9 9 4 2 3 6 5 4 5 5 4 4 4 4 1 2 3 3 4 4 4 4 4 5 5 5 5 5 5 5 5 5 5 5 5 5 4 3 3 3 3 3 3
7 8 8 1 1 2 6 6 1 2 3 3 2 5 2 2 3 4 4 4 4 4 4 4 5 5 6 6 6 6 6 5 5 5 5 5 5 5 4 3 3 3 3 3
10 9 6 1 1 3 6 2 2 3 3 3 4 5 5 5 4 4 4 4 4 4 4 4 4 5 6 6 6 5 5 5 5 5 5 5 5 4 4 4 3 3 3 3
7 9 5 2 2 4 4 5 5 5 5 5 6 6 5 5 5 5 4 4 4 4 4 4 5 6 6 6 5 5 5 5 5 5 5 4 4 4 4 4 4 4 4 3
5 4 3 1 2 4 5 5 6 6 5 5 6 6 6 6 5 4 4 3 3 4 4 4 5 6 6 5 5 5 5 5 5 6 5 5 5 5 4 4 4 4 4 3
6 6 5 4 4 4 5 6 7 7 7 6 6 6 6 5 4 4 4 3 3 3 4 4 5 6 6 5 5 6 6 6 5 5 5 5 4 4 4 4 5 5 4 4
8 7 6 6 5 6 6 7 7 7 7 6 6 6 5 5 5 4 4 3 3 3 4 4 4 5 5 5 6 6 6 6 6 6 5 5 5 4 5 5 4 5 4 4
7 6 7 7 6 6 7 8 7 7 7 7 6 6 6 5 5 4 4 4 4 4 4 4 4 4 5 5 6 6 6 6 5 5 5 5 4 4 2 3 3 4 4 5
9 8 9 9 9 9 8 8 8 8 7 7 6 6 6 5 5 5 4 4 5 4 4 4 4 4 4 5 6 7 6 6 5 5 5 5 5 5 4 3 4 5 5 5
8 8 9 9 9 9 8 8 8 7 7 6 6 5 5 5 5 5 5 5 5 4 4 4 4 4 3 4 5 6 6 5 5 5 5 5 5 5 4 4 4 4 4 6
9 9 10 9 8 8 7 7 7 7 6 6 5 5 5 5 5 5 4 4 4 4 4 3 4 4 3 4 5 5 5 4 4 4 5 5 5 5 5 5 5 4 3 3
7 8 8 9 9 8 8 8 8 7 6 6 5 5 5 5 5 4 4 3 4 4 3 3 3 3 3 4 4 4 4 4 4 4 4 5 5 5 5 5 5 4 4 3
9 8 8 8 8 8 7 7 7 7 6 6 6 5 5 5 4 4 4 3 4 4 3 3 4 3 3 4 4 4 4 4 5 5 5 5 5 5 5 4 4 4 4 3
8 8 8 8 7 7 7 6 6 6 5 5 5 5 4 4 4 4 4 3 3 3 3 3 3 3 3 4 4 3 4 3 4 4 4 4 5 4 5 5 5 5 4 4
5 6 6 6 6 6 6 6 5 5 5 5 5 5 5 5 5 4 4 3 3 4 4 3 3 3 4 4 3 3 4 4 4 4 4 4 5 5 5 5 5 5 4 4
3 3 4 4 5 5 5 5 4 4 4 4 4 4 4 4 4 4 3 3 3 3 3 3 3 4 3 3 2 3 4 4 4 4 4 4 5 5 5 5 5 5 4 4
3 3 3 4 4 4 4 4 3 3 3 3 3 4 4 4 4 3 3 3 3 3 3 3 3 3 2 2 3 3 4 4 4 4 4 4 5 5 5 5 4 4 4 4
4 3 4 4 4 4 3 3 3 3 3 3 3 3 3 3 3 3 3 3 3 2 2 2 2 2 2 2 2 3 3 4 4 4 4 4 4 4 5 5 4 4 4 4
4 4 4 4 4 4 3 3 3 3 3 3 3 3 3 3 2 3 3 3 2 2 2 2 2 3 3 2 2 2 3 3 4 4 4 4 4 4 4 5 4 4 4 4
4 4 4 4 3 3 3 3 3 2 3 3 3 3 3 2 2 3 3 3 3 3 2 2 2 2 3 2 2 2 3 3 3 4 4 4 4 4 4 4 4 4 4 4
4 4 4 4 3 3 3 3 3 3 3 2 3 3 2 2 3 3 3 3 2 2 2 2 2 2 3 2 2 2 3 3 3 3 3 3 3 3 4 4 4 4 4 4
4 3 3 3 3 3 3 2 2 2 2 2 2 2 2 2 2 2 2 2 3 3 3 2 2 2 3 3 3 3 2 2 3 3 3 3 4 4 4 4 5 4 4 4
4 3 3 3 2 2 3 3 3 3 3 3 3 2 2 2 2 2 2 2 2 2 2 2 2 3 3 3 3 3 3 3 3 3 3 3 3 4 4 5 4 4 4 5
Wind_Direction
266 272 264 263 257 245 245 255 264 272 274 282 286 283 276 263 240 215 196 192 190 185 180 182 184 183 179 175 177 179 179 185 192 193 189 193 188 193 191 184 199 201 202 202
257 252 255 260 259 252 251 256 259 265 269 284 294 283 268 250 226 224 220 215 205 205 198 198 188 184 180 180 185 188 187 189 188 190 184 189 192 190 186 185 191 177 195 194
263 257 263 255 253 247 240 244 253 259 269 288 284 281 274 265 230 227 225 227 221 217 210 211 200 188 182 185 185 194 192 186 185 190 189 189 185 184 187 190 184 180 191 194
270 262 251 262 41 262 248 257 254 261 279 285 289 289 277 265 251 241 241 243 244 235 219 213 202 188 183 184 191 196 192 187 185 189 190 188 185 187 197 201 192 196 196 190
252 258 261 244 232 248 251 254 255 256 273 290 301 270 241 241 286 274 271 267 255 242 229 213 203 191 186 188 195 198 196 196 193 189 191 192 191 195 199 204 202 204 201 203
242 257 261 233 79 303 257 245 157 262 271 280 280 266 274 340 301 288 284 279 265 239 226 213 202 193 195 196 199 202 204 206 200 196 197 198 200 201 200 204 212 212 208 219
241 251 259 346 342 250 241 326 26 300 285 266 266 295 315 305 290 283 282 282 265 237 222 215 197 195 205 203 207 209 207 206 204 200 203 202 203 202 202 205 209 215 216 220
233 241 244 108 199 255 317 342 326 315 304 293 292 296 294 291 288 283 282 280 265 238 224 210 201 202 207 209 209 204 204 204 206 205 204 202 201 205 206 207 212 218 223 221
250 268 2 19 277 316 322 306 312 308 299 293 289 289 290 289 286 279 278 279 275 247 230 217 208 208 210 210 202 197 200 203 207 206 205 203 201 203 206 208 220 229 230 229
255 255 270 281 286 293 300 304 307 302 294 286 283 285 283 283 285 286 284 283 281 265 239 226 214 214 217 209 200 200 204 206 211 211 210 207 203 206 212 216 222 228 235 237
255 266 279 273 278 291 303 306 305 302 295 285 281 282 287 287 286 286 281 281 275 267 255 243 229 225 220 210 206 209 210 208 211 211 210 213 210 210 217 220 226 229 233 236
259 270 273 284 294 298 300 302 301 300 298 294 288 283 286 288 289 285 282 281 275 273 264 249 236 234 225 214 212 212 213 210 209 207 209 211 212 211 211 225 218 233 251 254
267 276 279 284 287 290 293 297 300 298 295 293 290 284 282 286 285 281 276 272 270 272 266 255 242 240 230 217 214 215 218 215 208 209 210 212 214 216 217 211 208 220 228 239
263 269 269 271 279 287 288 291 293 293 291 288 286 285 283 283 280 278 275 265 262 266 263 254 247 246 238 223 218 220 223 221 217 214 214 215 216 222 225 226 229 232 218 219
259 259 265 273 277 282 285 285 286 287 289 288 289 287 284 283 280 281 281 273 260 257 258 254 249 250 241 226 221 223 225 221 219 216 212 213 217 222 224 227 231 234 228 207
266 263 263 265 268 274 277 278 279 284 288 289 290 291 291 291 291 291 290 278 258 250 253 255 256 256 244 232 226 224 222 221 222 219 214 212 215 219 222 225 229 230 230 226
260 261 261 262 266 271 275 278 280 284 286 287 291 295 297 298 297 295 289 278 267 259 256 258 267 267 250 240 231 228 225 215 212 219 219 217 218 222 225 226 227 231 235 220
258 263 268 268 270 274 277 280 283 284 285 288 291 291 292 290 288 285 282 278 275 274 271 268 272 272 258 243 235 231 225 218 215 219 222 220 219 222 225 230 232 235 238 216
265 266 269 269 272 274 277 281 284 285 287 286 282 280 283 284 284 282 278 272 272 276 282 288 289 265 256 245 237 234 231 225 218 218 219 214 217 222 226 230 233 234 236 231
282 278 281 283 282 278 279 284 285 284 284 282 279 282 284 283 281 276 267 266 277 295 302 298 271 264 261 253 240 239 235 228 223 220 219 221 222 224 226 229 232 232 234 234
310 301 295 290 288 286 284 286 285 280 281 277 273 276 282 285 282 276 272 278 293 308 304 291 270 270 269 269 246 244 236 232 228 225 222 224 225 225 227 228 230 232 233 234
321 309 301 296 291 290 290 286 279 278 276 272 273 278 282 285 283 280 278 284 298 310 294 275 275 292 302 283 254 251 243 236 234 230 226 224 225 225 227 228 229 229 230 231
316 312 308 306 302 300 297 291 284 282 280 276 273 275 277 284 281 277 281 289 297 305 289 279 306 311 295 270 263 260 252 240 233 231 229 228 229 229 229 229 231 231 230 230
318 317 314 311 307 296 294 300 297 289 281 280 277 277 278 279 280 280 286 300 304 296 287 303 309 296 282 269 260 257 257 249 238 232 228 225 227 229 230 229 231 233 234 234
309 309 309 304 298 297 297 298 294 292 288 286 289 291 288 285 288 294 293 295 310 300 294 301 287 275 272 272 263 258 256 254 246 236 232 229 230 232 231 229 229 230 233 234
301 299 298 296 299 297 290 282 279 282 283 285 293 299 298 295 288 287 289 287 288 294 294 292 279 269 274 276 273 269 265 259 251 241 233 230 230 233 235 234 235 235 236 236
289 291 290 291 291 287 281 273 269 274 278 280 288 294 293 294 293 293 291 288 286 284 288 288 283 279 282 282 275 269 263 258 256 251 242 237 236 236 237 239 240 240 239 238